Tracking 19576 objects as of 17-Feb-2019
HD Live streaming from Space Station
objects crossing your sky now

NIMBUS 2


NIMBUS 2 is no longer on orbit


NORAD ID: 2173
Int'l Code: 1966-040A
Perigee: N/A
Apogee: N/A
Inclination: N/A
Period: N/A
Semi major axis: N/A
RCS: N/A
Launch date: May 15, 1966
Source: United States (US)
Launch site: AIR FORCE WESTERN TEST RANGE (AFWTR)
Decay date: 1969-01-17
aabbcc
Your satellite tracking list
Your tracking list is empty




NASA's NSSDC Master Catalog

Two Line Element Set (TLE):
1  2173U 66040A   19047.91286661 -.00000033 +00000-0 +26284-4 0  9992
2  2173 100.3579 165.1932 0055931 092.9919 012.5601 13.33548966566751
Source of the keplerian elements: AFSPC